Location: Unspecified
(48.8656°N, 0.0000°E)
Time: 08:44:01
(UTC+00:00)

SR - Pass Details

Date: 29 June 2019
Orbit: 580 x 876 km, 66.7° (Epoch: 17 July)

Event Time Altitude Azimuth Distance (km) Brightness Sun altitude
Rises 09:20:38 0° 327° (NNW) 2,987 ? 49.1°
Reaches altitude 10° 09:23:01 10° 336° (NNW) 2,116 ? 49.4°
Maximum altitude 09:27:30 37° 45° (NE) 1,107 ? 50.1°
Drops below altitude 10° 09:32:19 10° 112° (ESE) 2,288 ? 50.8°
Sets 09:34:59 0° 121° (ESE) 3,262 ? 51.2°
